This is the latest recevied weather packets stored in our database for station/object G4KVI. If no packets are shown the sender has not sent any weather packets the latest 10 day(s).
| Time | Temp. | Humidity | Pressure | Rain* | Wind** | Luminosity | Snow |
|---|---|---|---|---|---|---|---|
| 1788173104 | 19.44° C | 71% | 1015.3 hPa | 0 mm | - | 177 W/m² | - |
| 1788172804 | 19.44° C | 71% | 1015.3 hPa | 0 mm | - | 200 W/m² | - |
| 1788172504 | 19.44° C | 69% | 1015.1 hPa | 0 mm | - | 340 W/m² | - |
| 1788172204 | 19.44° C | 70% | 1015.2 hPa | 0 mm | - | 730 W/m² | - |
| 1788171904 | 18.89° C | 71% | 1015 hPa | 0 mm | - | 714 W/m² | - |
| 1788171604 | 18.89° C | 71% | 1015.1 hPa | 0 mm | - | 331 W/m² | - |
| 1788171304 | 18.89° C | 71% | 1015 hPa | 0 mm | - | 441 W/m² | - |
| 1788171004 | 19.44° C | 70% | 1015 hPa | 0 mm | - | 278 W/m² | - |
| 1788170704 | 18.89° C | 70% | 1014.9 hPa | 0 mm | - | 543 W/m² | - |
| 1788170404 | 18.89° C | 71% | 1014.6 hPa | 0 mm | - | 472 W/m² | - |
| 1788170104 | 18.33° C | 71% | 1014.5 hPa | 0 mm | - | 551 W/m² | - |
| 1788169804 | 18.33° C | 72% | 1014.6 hPa | 0 mm | - | 499 W/m² | - |
| 1788169504 | 17.78° C | 73% | 1014.4 hPa | 0 mm | - | 625 W/m² | - |
| 1788169204 | 17.78° C | 74% | 1014.4 hPa | 0 mm | - | 247 W/m² | - |
| 1788168904 | 18.33° C | 73% | 1014.6 hPa | 0 mm | - | 168 W/m² | - |
| 1788168604 | 18.33° C | 74% | 1014.4 hPa | 0 mm | - | 305 W/m² | - |
| 1788168304 | 18.33° C | 74% | 1014.2 hPa | 0 mm | - | 174 W/m² | - |
| 1788168004 | 18.33° C | 72% | 1014.1 hPa | 0 mm | - | 236 W/m² | - |
| 1788167704 | 18.89° C | 74% | 1013.9 hPa | 0 mm | - | 342 W/m² | - |
| 1788167404 | 18.33° C | 75% | 1014.1 hPa | 0 mm | - | 476 W/m² | - |
| 1788167104 | 18.33° C | 74% | 1013.8 hPa | 0 mm | - | 294 W/m² | - |
| 1788166804 | 17.78° C | 75% | 1014.1 hPa | 0 mm | - | 439 W/m² | - |
| 1788166504 | 18.33° C | 75% | 1013.7 hPa | 0 mm | - | 421 W/m² | - |
| 1788166220 | 18.33° C | 75% | 1013.8 hPa | 0 mm | - | 400 W/m² | - |
| 1788165904 | 18.33° C | 76% | 1013.6 hPa | 0 mm | - | 389 W/m² | - |
* Rain latest hour (hover to see other rain measurements)
** Current wind speed in m/s (hover to see current wind gust speed)